FW9021 Weather Reports


Display with metric or nautical units.
time (UTC)temp
F
wind
direction
speed
MPH
gust
MPH
rain 1hr
in
rain 24hr
in
rain mn
in
humidity
%
barometer
mb
20260509132539 57 328 2.0 4.0 0.00 0.00 0.00 87 1011.5
20260509132039 57 345 2.0 4.0 0.00 0.00 0.00 87 1011.5
20260509131548 57 344 1.0 4.0 0.00 0.00 0.00 86 1011.5
20260509131038 57 355 1.0 4.0 0.00 0.00 0.00 86 1011.5
20260509130538 57 24 1.0 3.0 0.00 0.00 0.00 87 1011.4
20260509130050 56 0 0.0 1.0 0.00 0.00 0.00 87 1011.3
20260509125539 56 0 0.0 2.0 0.00 0.01 0.00 87 1011.3
20260509125038 56 0 0.0 3.0 0.00 0.01 0.00 87 1011.3
20260509124550 56 42 1.0 5.0 0.00 0.01 0.00 86 1011.3
20260509124038 56 0 1.0 5.0 0.00 0.01 0.00 87 1011.4
20260509123538 56 36 3.0 5.0 0.00 0.01 0.00 87 1011.3
20260509123048 56 48 3.0 5.0 0.00 0.01 0.00 87 1011.3
20260509122538 56 44 3.0 5.0 0.00 0.01 0.00 87 1011.4
20260509122038 55 18 1.0 4.0 0.00 0.01 0.00 87 1011.4
20260509121551 55 19 2.0 4.0 0.00 0.01 0.00 87 1011.4
20260509121041 55 32 1.0 4.0 0.00 0.01 0.00 87 1011.4
20260509120539 55 10 0.0 5.0 0.00 0.01 0.00 86 1011.3
20260509120053 55 11 1.0 5.0 0.00 0.01 0.00 87 1011.2
20260509115538 55 19 2.0 5.0 0.00 0.01 0.00 87 1011.2
20260509115038 54 20 2.0 4.0 0.00 0.01 0.00 87 1011.2
20260509114551 54 360 2.0 4.0 0.00 0.01 0.00 87 1011.1
20260509114038 54 0 0.0 4.0 0.00 0.01 0.00 87 1011.3
20260509113538 54 74 1.0 4.0 0.00 0.01 0.00 87 1011.3
20260509113050 54 355 2.0 4.0 0.00 0.01 0.00 87 1011.4
20260509112538 54 5 1.0 4.0 0.00 0.01 0.00 87 1011.4
20260509112038 54 5 1.0 5.0 0.00 0.01 0.00 87 1011.5
20260509111548 54 23 3.0 5.0 0.00 0.01 0.00 87 1011.5
20260509111038 53 26 2.0 5.0 0.00 0.01 0.00 87 1011.5
20260509110540 53 13 2.0 5.0 0.00 0.01 0.00 87 1011.5
20260509110047 53 68 2.0 5.0 0.00 0.01 0.00 87 1011.4
20260509105538 54 344 1.0 4.0 0.00 0.01 0.00 87 1011.2
20260509105039 53 11 1.0 3.0 0.00 0.01 0.00 87 1011.0
20260509104602 53 5 1.0 4.0 0.00 0.01 0.00 87 1011.1
20260509104039 53 0 1.0 4.0 0.00 0.01 0.00 87 1011.0
20260509103538 53 26 1.0 4.0 0.00 0.01 0.00 87 1010.9
20260509103055 53 105 0.0 2.0 0.00 0.01 0.00 87 1011.0
20260509102538 53 67 0.0 2.0 0.00 0.01 0.00 87 1011.0
20260509102042 53 0 0.0 2.0 0.00 0.01 0.00 87 1011.1
20260509101545 53 71 0.0 3.0 0.00 0.01 0.00 87 1011.2
20260509101038 53 0 1.0 4.0 0.00 0.01 0.00 87 1011.3
20260509100540 53 0 1.0 4.0 0.00 0.01 0.00 87 1011.3
20260509100051 53 39 0.0 3.0 0.00 0.01 0.00 87 1011.1
20260509095538 53 0 0.0 4.0 0.00 0.01 0.00 87 1010.9
20260509095039 53 77 2.0 5.0 0.00 0.01 0.00 87 1011.1
20260509094551 53 76 3.0 6.0 0.00 0.01 0.00 87 1011.0
20260509094037 53 32 0.0 7.0 0.00 0.01 0.00 87 1011.1
20260509093539 53 37 2.0 7.0 0.00 0.01 0.00 87 1011.1
20260509093048 53 78 1.0 8.0 0.00 0.01 0.00 87 1011.1
20260509092541 53 5 2.0 8.0 0.00 0.01 0.00 87 1011.2
20260509092038 53 34 3.0 8.0 0.00 0.01 0.00 87 1011.4
20260509091552 54 121 3.0 5.0 0.00 0.01 0.00 87 1011.4
20260509091038 53 12 0.0 5.0 0.00 0.01 0.00 87 1011.3
20260509090539 53 59 3.0 5.0 0.00 0.01 0.00 87 1011.3
20260509090056 53 64 2.0 4.0 0.00 0.01 0.00 87 1011.1
20260509085538 53 102 0.0 3.0 0.00 0.01 0.00 87 1011.0
20260509085038 53 102 1.0 3.0 0.00 0.01 0.00 87 1011.0
20260509084547 53 36 1.0 3.0 0.00 0.01 0.00 87 1011.2
20260509084039 52 0 0.0 3.0 0.00 0.01 0.00 87 1011.2
20260509083538 52 31 0.0 3.0 0.00 0.01 0.00 87 1011.0
20260509083044 52 111 0.0 4.0 0.00 0.01 0.00 87 1011.2
20260509082539 52 111 1.0 5.0 0.00 0.01 0.00 87 1011.2
20260509082040 52 32 2.0 5.0 0.00 0.01 0.00 87 1011.2
20260509081554 52 46 1.0 5.0 0.00 0.01 0.00 87 1011.2
20260509081038 51 71 0.0 2.0 0.00 0.01 0.00 87 1011.1
20260509080542 51 71 0.0 2.0 0.00 0.01 0.00 87 1011.2
20260509080052 51 71 0.0 2.0 0.00 0.01 0.00 87 1011.1
20260509075541 51 0 0.0 2.0 0.00 0.01 0.00 87 1011.1
20260509075043 51 71 1.0 2.0 0.00 0.01 0.00 87 1011.1
20260509074552 52 0 0.0 3.0 0.00 0.01 0.00 87 1011.3
20260509074038 52 51 1.0 3.0 0.00 0.01 0.00 87 1011.2
20260509073538 52 59 0.0 2.0 0.00 0.01 0.00 87 1011.3
20260509073056 52 0 0.0 3.0 0.00 0.01 0.00 87 1011.1
20260509072538 52 59 0.0 3.0 0.00 0.01 0.00 87 1011.3
20260509072038 52 59 0.0 3.0 0.00 0.01 0.00 87 1011.3
20260509071551 52 0 0.0 4.0 0.00 0.01 0.00 87 1011.3
20260509071038 52 90 1.0 4.0 0.00 0.01 0.00 87 1011.2
20260509070541 52 10 2.0 4.0 0.00 0.01 0.00 87 1011.3
20260509070056 52 22 1.0 3.0 0.00 0.01 0.00 87 1011.3
20260509065538 52 107 0.0 3.0 0.00 0.01 0.00 87 1011.5
20260509065040 52 107 1.0 4.0 0.00 0.01 0.00 87 1011.6
20260509064603 52 107 1.0 4.0 0.00 0.01 0.00 87 1011.8
20260509064038 53 51 3.0 4.0 0.00 0.01 0.00 87 1011.9
20260509063540 53 26 1.0 4.0 0.00 0.01 0.00 87 1011.8
20260509063107 53 0 0.0 2.0 0.00 0.01 0.00 87 1011.9
20260509062538 53 0 0.0 3.0 0.00 0.01 0.00 87 1011.9
20260509062038 53 27 1.0 3.0 0.00 0.01 0.00 87 1012.0
20260509061612 53 5 0.0 3.0 0.00 0.01 0.00 87 1012.0
20260509061040 53 97 1.0 3.0 0.00 0.01 0.00 87 1012.2
20260509060541 53 97 1.0 3.0 0.00 0.01 0.00 87 1012.2
20260509060113 53 51 0.0 2.0 0.00 0.01 0.00 87 1012.2
20260509055539 53 0 0.0 2.0 0.00 0.01 0.00 87 1012.3
20260509055041 53 85 1.0 3.0 0.00 0.01 0.00 87 1012.4
20260509054552 54 58 1.0 3.0 0.00 0.01 0.00 87 1012.5
20260509054038 53 50 1.0 3.0 0.00 0.01 0.00 87 1012.4
20260509053540 53 91 1.0 3.0 0.00 0.01 0.00 87 1012.5
20260509053050 53 0 1.0 3.0 0.00 0.01 0.00 87 1012.4
20260509052539 54 71 1.0 2.0 0.00 0.01 0.00 87 1012.4
20260509052038 54 64 0.0 2.0 0.00 0.01 0.00 87 1012.3
20260509051559 54 0 0.0 3.0 0.00 0.01 0.00 86 1012.5
20260509051038 54 64 1.0 4.0 0.00 0.01 0.00 87 1012.7
20260509050538 55 53 2.0 4.0 0.00 0.01 0.00 86 1012.8
20260509050052 55 18 2.0 3.0 0.00 0.01 0.00 86 1012.7
20260509045541 55 100 0.0 2.0 0.00 0.01 0.00 86 1012.8
20260509045041 55 100 0.0 2.0 0.00 0.01 0.00 86 1012.8
20260509044550 55 100 1.0 2.0 0.00 0.01 0.00 86 1012.9
20260509044042 55 100 1.0 2.0 0.00 0.01 0.00 86 1012.9
20260509043539 55 100 1.0 2.0 0.00 0.01 0.00 85 1013.0
20260509043050 55 100 1.0 3.0 0.00 0.01 0.00 85 1012.9
20260509042539 55 112 1.0 3.0 0.00 0.01 0.00 85 1012.9
20260509042038 56 112 1.0 3.0 0.00 0.01 0.00 85 1012.8
20260509041548 56 94 1.0 2.0 0.00 0.01 0.00 85 1012.9
20260509041040 57 94 1.0 2.0 0.00 0.01 0.00 85 1012.8
20260509040540 57 59 0.0 4.0 0.00 0.01 0.00 85 1013.0
20260509040055 57 0 1.0 4.0 0.00 0.01 0.00 85 1012.9
20260509035538 57 37 0.0 3.0 0.00 0.01 0.01 85 1013.0
20260509035041 57 67 0.0 2.0 0.00 0.01 0.01 85 1013.3
20260509034552 57 66 0.0 2.0 0.00 0.01 0.01 85 1013.3
20260509034038 57 61 0.0 2.0 0.00 0.01 0.01 85 1013.3
20260509033539 57 0 0.0 2.0 0.00 0.01 0.01 85 1013.5
20260509033053 57 0 0.0 2.0 0.00 0.01 0.01 85 1013.3
20260509032540 57 0 0.0 2.0 0.00 0.01 0.01 85 1013.2
20260509032038 57 0 0.0 4.0 0.00 0.01 0.01 85 1013.4
20260509031556 57 57 0.0 4.0 0.00 0.01 0.01 85 1013.6
20260509031038 57 56 3.0 4.0 0.00 0.01 0.01 85 1013.7
20260509030538 57 17 2.0 4.0 0.00 0.01 0.01 85 1013.8
20260509030057 57 55 1.0 3.0 0.00 0.01 0.01 85 1013.7
20260509025540 57 59 1.0 3.0 0.00 0.01 0.01 85 1013.7
20260509025043 57 65 1.0 2.0 0.00 0.01 0.01 85 1013.6
20260509024556 57 63 1.0 3.0 0.00 0.01 0.01 84 1013.7
20260509024041 57 59 1.0 3.0 0.00 0.01 0.01 84 1013.5
20260509023538 58 61 1.0 3.0 0.00 0.01 0.01 84 1013.5
20260509023055 58 53 1.0 3.0 0.00 0.01 0.01 83 1013.5
20260509022539 58 50 0.0 3.0 0.00 0.01 0.01 83 1013.4
20260509022039 58 51 1.0 3.0 0.00 0.01 0.01 83 1013.4
20260509021550 58 50 1.0 2.0 0.00 0.01 0.01 82 1013.4
20260509021040 58 50 1.0 2.0 0.00 0.01 0.01 82 1013.2
20260509020538 58 50 1.0 2.0 0.00 0.01 0.01 82 1013.4
20260509020056 58 50 0.0 2.0 0.00 0.01 0.01 81 1013.2
20260509015538 59 50 1.0 2.0 0.00 0.01 0.01 81 1013.3
20260509015039 59 50 1.0 3.0 0.00 0.01 0.01 81 1013.2
20260509014549 59 50 1.0 3.0 0.00 0.01 0.01 80 1013.1
20260509014041 59 45 1.0 2.0 0.00 0.01 0.01 79 1013.1
20260509013538 60 36 1.0 2.0 0.00 0.01 0.01 79 1013.0
20260509013058 60 36 0.0 2.0 0.00 0.01 0.01 78 1012.9
20260509012538 60 36 1.0 2.0 0.00 0.01 0.01 78 1012.9
20260509012038 61 0 1.0 2.0 0.00 0.01 0.01 76 1013.0
20260509011554 61 36 0.0 2.0 0.00 0.01 0.01 74 1013.0
20260509011040 61 36 1.0 2.0 0.00 0.01 0.01 74 1013.0
20260509010538 62 0 0.0 1.0 0.00 0.01 0.01 73 1013.0
20260509010051 62 0 0.0 1.0 0.00 0.01 0.01 73 1013.1
20260509005538 62 0 0.0 3.0 0.00 0.01 0.01 72 1013.0
20260509005037 62 0 1.0 3.0 0.00 0.01 0.01 71 1013.0
20260509004553 62 44 0.0 3.0 0.00 0.01 0.01 71 1013.0
20260509004038 63 0 0.0 4.0 0.00 0.01 0.01 69 1013.1
20260509003539 63 315 0.0 4.0 0.00 0.01 0.01 69 1013.2
20260509003047 63 255 0.0 4.0 0.00 0.01 0.01 70 1013.3
20260509002539 63 229 0.0 3.0 0.00 0.01 0.01 70 1013.2
20260509002042 63 0 0.0 4.0 0.00 0.01 0.01 70 1013.1
20260509001549 63 0 1.0 4.0 0.00 0.01 0.01 69 1013.1
20260509001039 63 61 0.0 4.0 0.00 0.01 0.01 69 1013.0
20260509000540 64 0 0.0 4.0 0.00 0.01 0.01 68 1012.8
20260509000052 64 0 0.0 2.0 0.00 0.01 0.01 68 1012.9
20260508235538 64 79 0.0 4.0 0.00 0.01 0.01 68 1012.9
20260508235038 64 291 1.0 4.0 0.00 0.01 0.01 67 1012.8
20260508234553 64 0 1.0 5.0 0.00 0.01 0.01 67 1012.9
20260508234042 64 0 1.0 6.0 0.00 0.01 0.01 68 1012.9
20260508233539 64 262 3.0 6.0 0.00 0.01 0.01 66 1013.0
20260508233051 65 261 2.0 8.0 0.00 0.01 0.01 66 1013.0
20260508232538 65 236 3.0 8.0 0.00 0.01 0.01 65 1013.0
20260508232039 65 292 3.0 8.0 0.00 0.01 0.01 65 1012.8
20260508231548 65 271 3.0 8.0 0.00 0.01 0.01 66 1012.8
20260508231038 65 312 3.0 8.0 0.00 0.01 0.01 64 1012.9
20260508230538 65 309 5.0 10.0 0.00 0.01 0.01 65 1012.8
20260508230051 65 268 3.0 10.0 0.00 0.01 0.01 65 1012.8
20260508225538 65 281 4.0 12.0 0.00 0.01 0.01 65 1013.0
20260508225039 66 264 5.0 12.0 0.00 0.01 0.01 64 1013.0
20260508224558 66 297 7.0 11.0 0.00 0.01 0.01 63 1013.1
20260508224038 66 282 7.0 10.0 0.00 0.01 0.01 63 1013.1
20260508223538 66 257 6.0 10.0 0.00 0.01 0.01 62 1013.1
20260508223052 66 227 5.0 9.0 0.00 0.01 0.01 61 1013.0
20260508222539 66 252 4.0 8.0 0.00 0.01 0.01 64 1012.9
20260508222041 66 236 2.0 10.0 0.00 0.01 0.01 61 1012.9
20260508221558 66 0 2.0 10.0 0.00 0.01 0.01 60 1012.9
20260508221039 66 253 6.0 10.0 0.00 0.01 0.01 60 1012.8
20260508220539 66 248 3.0 11.0 0.00 0.01 0.01 60 1012.7
20260508220046 66 237 6.0 11.0 0.00 0.01 0.01 57 1012.8
20260508215537 66 250 8.0 13.0 0.00 0.01 0.01 58 1012.7
20260508215042 66 262 8.0 13.0 0.00 0.01 0.01 60 1012.8
20260508214550 66 254 7.0 12.0 0.00 0.01 0.01 61 1012.7
20260508214038 66 257 8.0 12.0 0.00 0.01 0.01 59 1012.6
20260508213538 67 271 8.0 14.0 0.00 0.01 0.01 58 1012.5
20260508213045 67 254 9.0 14.0 0.00 0.01 0.01 56 1012.5
20260508212541 67 261 9.0 12.0 0.00 0.01 0.01 57 1012.6
20260508212042 67 267 6.0 11.0 0.00 0.01 0.01 59 1012.4
20260508211550 67 275 7.0 11.0 0.00 0.01 0.01 58 1012.5
20260508211040 67 241 2.0 13.0 0.00 0.01 0.01 58 1012.6
20260508210541 67 246 8.0 13.0 0.00 0.01 0.01 56 1012.9
20260508210051 67 240 7.0 12.0 0.00 0.01 0.01 58 1013.0
20260508205540 67 252 7.0 14.0 0.00 0.01 0.01 60 1012.9
20260508205040 67 263 10.0 14.0 0.00 0.01 0.01 56 1012.9
20260508204550 67 252 5.0 11.0 0.00 0.01 0.01 59 1012.8
20260508204040 67 240 7.0 12.0 0.00 0.01 0.01 57 1012.9
20260508203540 67 254 8.0 12.0 0.00 0.01 0.01 55 1012.9
20260508203052 67 267 9.0 13.0 0.00 0.01 0.01 59 1012.8
20260508202541 67 271 9.0 14.0 0.00 0.01 0.01 55 1012.8
20260508202040 67 252 11.0 16.0 0.00 0.01 0.01 56 1012.8
20260508201557 67 246 10.0 18.0 0.00 0.01 0.01 57 1012.8
20260508201040 67 247 10.0 18.0 0.00 0.01 0.01 60 1012.9
20260508200540 67 261 9.0 15.0 0.00 0.01 0.01 57 1012.9
20260508200044 67 205 9.0 15.0 0.00 0.01 0.01 57 1013.1
20260508195540 67 238 7.0 15.0 0.00 0.01 0.01 57 1013.0
20260508195042 67 246 10.0 15.0 0.00 0.01 0.01 55 1013.2
20260508194549 68 255 9.0 15.0 0.00 0.01 0.01 54 1013.4
20260508194040 67 253 9.0 14.0 0.00 0.01 0.01 51 1013.5
20260508193540 68 250 10.0 14.0 0.00 0.01 0.01 56 1013.5
20260508193053 68 266 9.0 14.0 0.00 0.01 0.01 54 1013.4
20260508192541 68 254 7.0 14.0 0.00 0.01 0.01 54 1013.5
20260508192041 68 267 8.0 14.0 0.00 0.01 0.01 53 1013.4
20260508191551 68 273 1.0 11.0 0.00 0.01 0.01 52 1013.5
20260508191040 68 247 5.0 11.0 0.00 0.01 0.01 52 1013.6
20260508190540 68 234 6.0 11.0 0.00 0.01 0.01 53 1013.7
20260508190047 68 269 6.0 10.0 0.00 0.01 0.01 54 1013.7
20260508185543 68 243 5.0 10.0 0.00 0.01 0.01 51 1013.8
20260508185040 68 0 2.0 5.0 0.00 0.01 0.01 49 1013.8
20260508184554 68 11 2.0 12.0 0.00 0.01 0.01 49 1013.9
20260508184043 68 258 7.0 12.0 0.00 0.01 0.01 49 1014.1
20260508183540 68 219 3.0 8.0 0.00 0.01 0.01 49 1014.3
20260508183052 68 271 3.0 6.0 0.00 0.01 0.01 49 1014.4
20260508182538 68 278 2.0 6.0 0.00 0.01 0.01 50 1014.3
20260508182040 68 263 3.0 5.0 0.00 0.01 0.01 50 1014.3
20260508181556 68 294 1.0 5.0 0.00 0.01 0.01 49 1014.3
20260508181039 68 0 2.0 6.0 0.00 0.01 0.01 49 1014.3
20260508180539 67 316 1.0 6.0 0.00 0.01 0.01 50 1014.3
20260508180050 67 36 2.0 5.0 0.00 0.01 0.01 51 1014.3
20260508175539 67 0 2.0 4.0 0.00 0.01 0.01 49 1014.5
20260508175039 67 333 1.0 4.0 0.00 0.01 0.01 49 1014.6
20260508174607 67 271 1.0 4.0 0.00 0.01 0.01 49 1014.8
20260508174042 67 40 1.0 5.0 0.00 0.01 0.01 49 1014.7
20260508173542 67 217 2.0 5.0 0.00 0.01 0.01 52 1014.8
20260508173052 67 137 2.0 4.0 0.00 0.01 0.01 52 1015.0
20260508172538 66 0 1.0 7.0 0.00 0.01 0.01 54 1014.7
20260508172038 66 288 1.0 7.0 0.00 0.01 0.01 53 1015.0
20260508171548 66 266 3.0 7.0 0.00 0.01 0.01 54 1015.0
20260508171042 65 215 1.0 7.0 0.00 0.01 0.01 54 1014.9
20260508170539 65 246 3.0 8.0 0.00 0.01 0.01 53 1014.9
20260508170049 65 266 4.0 8.0 0.00 0.01 0.01 52 1015.0
20260508165538 65 311 0.0 4.0 0.00 0.01 0.01 52 1015.2
20260508165042 65 0 1.0 5.0 0.00 0.01 0.01 53 1015.3
20260508164545 65 253 2.0 5.0 0.00 0.01 0.01 53 1015.4
20260508164039 65 215 2.0 5.0 0.00 0.01 0.01 53 1015.5
20260508163538 64 327 1.0 7.0 0.00 0.01 0.01 53 1015.7
20260508163051 64 0 1.0 7.0 0.00 0.01 0.01 54 1015.8
20260508162539 63 304 2.0 7.0 0.00 0.01 0.01 53 1015.7
20260508162040 63 268 2.0 4.0 0.00 0.01 0.01 54 1015.8
20260508161544 63 269 1.0 4.0 0.00 0.01 0.01 53 1015.9
20260508161038 63 0 0.0 7.0 0.00 0.01 0.01 53 1015.9
20260508160539 63 270 3.0 7.0 0.00 0.01 0.01 52 1016.0
20260508160052 62 267 2.0 6.0 0.00 0.01 0.01 55 1016.0
20260508155542 62 297 2.0 7.0 0.00 0.01 0.01 53 1016.0
20260508155039 62 265 3.0 7.0 0.00 0.01 0.01 54 1016.1
20260508154551 61 255 4.0 7.0 0.00 0.01 0.01 55 1016.1
20260508154039 61 290 0.0 5.0 0.00 0.01 0.01 63 1016.1
20260508153539 61 295 2.0 5.0 0.00 0.01 0.01 64 1016.0
20260508153053 60 281 1.0 3.0 0.00 0.01 0.01 66 1016.1
20260508152539 60 343 1.0 3.0 0.00 0.01 0.01 68 1016.2
20260508152039 60 318 0.0 3.0 0.00 0.01 0.01 68 1016.2
20260508151554 59 327 1.0 3.0 0.00 0.01 0.01 70 1016.4
20260508151039 59 0 1.0 3.0 0.00 0.01 0.01 69 1016.3
20260508150540 59 275 1.0 3.0 0.00 0.01 0.01 71 1016.4
20260508150049 58 265 1.0 3.0 0.00 0.01 0.01 73 1016.5
20260508145537 58 350 0.0 3.0 0.00 0.01 0.01 72 1016.4
20260508145038 58 317 1.0 3.0 0.00 0.01 0.01 75 1016.3
20260508144551 57 14 2.0 3.0 0.00 0.01 0.01 74 1016.4
20260508144038 57 24 1.0 3.0 0.00 0.01 0.01 76 1016.5
20260508143539 57 34 1.0 3.0 0.00 0.01 0.01 77 1016.5
20260508143056 57 30 1.0 3.0 0.00 0.01 0.01 78 1016.6
20260508142539 57 360 0.0 2.0 0.00 0.01 0.01 80 1016.5
20260508142039 56 0 0.0 2.0 0.00 0.01 0.01 81 1016.6
20260508141612 56 0 0.0 3.0 0.00 0.01 0.01 81 1016.6
20260508141039 56 0 0.0 3.0 0.00 0.01 0.01 81 1016.6
20260508140538 56 0 1.0 3.0 0.00 0.01 0.01 81 1016.6
20260508140048 56 360 0.0 3.0 0.00 0.01 0.01 83 1016.6
20260508135539 55 166 1.0 3.0 0.00 0.01 0.01 84 1016.6
20260508135040 54 0 1.0 3.0 0.00 0.01 0.01 84 1016.6
20260508134555 54 338 0.0 3.0 0.00 0.01 0.01 85 1016.6
20260508134038 54 32 1.0 3.0 0.00 0.01 0.01 85 1016.6
20260508133538 54 113 1.0 3.0 0.00 0.01 0.01 87 1016.6
20260508133043 53 51 0.0 3.0 0.00 0.01 0.01 87 1016.7